Flag for Germany Weather past 2 weeks in Böblingen, Baden-Württemberg, Germany

Now
63 °F

Passing clouds.


Feels Like: 63 °F
Forecast: 54 / 76 °F
Wind: 8 mph from Northwest

Location: Stuttgart-Echterdingen

Current Time: Jul 31, 2014 at 7:09:27 AM

Latest Report: Jul 31, 2014 at 6:20 AM


Visibility: N/A

Pressure: 30.01 "Hg

Humidity: 83%

Dew point: 57 °F

Location of BöblingenLocation

Historic Weather in Böblingen — Graph

°F

Böblingen temperature yesterday

Maximum temperature yesterday: 73 °F (at 3:50 PM)
Minimum temperature yesterday: 63 °F (at 1:20 AM)
Average temperature yesterday: 66 °F

Past Weeks' High & Low Weather Summary

 TemperatureHumidityPressure
High91 °F (Jul 19, 3:50 PM)100% (Jul 20, 11:50 PM)30.21 "Hg (Jul 20, 11:50 PM)
Low57 °F (Jul 16, 5:20 AM)22% (Jul 18, 2:50 PM)29.77 "Hg (Jul 28, 6:20 PM)
Average69 °F72%29.96 "Hg
* Reported Jul 16 5:20 AM — Jul 31 5:50 AM, Böblingen, Weather by CustomWeather, © 2014

Note: Actual official high and low records may vary slightly from our data, if they occured in-between our weather recording intervals... More about our weather records

Advertising

Böblingen weather history for previous 24 hours

 ConditionsComfort  
Time TempWeatherWind HumidityBarometerVisibility
5:50 AM
Jul 31
63 °FClear.7 mph88%30.01 "Hg10 mi
5:20 AM63 °FClear.7 mph88%30.01 "Hg10 mi
4:50 AM63 °FClear.5 mph88%30.01 "Hg10 mi
4:20 AM63 °FPassing clouds.6 mph88%30.01 "HgN/A
3:50 AM64 °FPartly cloudy.6 mph88%29.98 "HgN/A
3:20 AM64 °FPassing clouds.5 mph88%29.98 "HgN/A
2:50 AM64 °FPassing clouds.7 mph83%29.98 "HgN/A
2:20 AM64 °FPassing clouds.7 mph88%29.98 "HgN/A
1:50 AM64 °FPartly cloudy.6 mph88%29.98 "HgN/A
1:20 AM64 °FPassing clouds.6 mph88%29.98 "HgN/A
12:50 AM64 °FClear.3 mph83%29.98 "Hg10 mi
12:20 AM64 °FClear.7 mph88%29.98 "Hg10 mi
11:50 PM
Jul 30
64 °FClear.9 mph88%29.98 "Hg10 mi
11:20 PM64 °FPassing clouds.9 mph88%29.98 "HgN/A
10:50 PM64 °FPassing clouds.12 mph88%29.98 "HgN/A
10:20 PM66 °FPartly cloudy.10 mph83%29.98 "HgN/A
9:50 PM66 °FSprinkles. Broken clouds.12 mph88%29.95 "Hg6 mi
9:20 PM66 °FScattered showers. Broken clouds.13 mph83%29.95 "Hg6 mi
8:50 PM66 °FSprinkles. Broken clouds.14 mph88%29.92 "Hg5 mi
8:20 PM66 °FBroken clouds.13 mph88%29.92 "HgN/A
7:50 PM66 °FBroken clouds.14 mph88%29.92 "HgN/A
7:20 PM66 °FBroken clouds.10 mph88%29.89 "HgN/A
6:50 PM68 °FPartly sunny.13 mph83%29.89 "HgN/A
6:20 PM68 °FPartly sunny.13 mph83%29.89 "HgN/A
5:50 PM68 °FBroken clouds.16 mph83%29.89 "HgN/A
5:20 PM70 °FBroken clouds.17 mph78%29.89 "HgN/A
4:50 PM70 °FScattered showers. Broken clouds.16 mph83%29.86 "HgN/A
4:20 PM72 °FScattered showers. Broken clouds.14 mph78%29.86 "HgN/A
3:50 PM73 °FBroken clouds.15 mph78%29.86 "HgN/A
3:20 PM72 °FBroken clouds.10 mph73%29.86 "HgN/A
2:50 PM70 °FPartly sunny.10 mph83%29.86 "HgN/A
2:20 PM70 °FBroken clouds.9 mph83%29.86 "HgN/A
1:50 PM68 °FBroken clouds.9 mph88%29.86 "HgN/A
1:20 PM68 °FPartly sunny.7 mph88%29.86 "HgN/A
12:50 PM66 °FPartly sunny.7 mph94%29.86 "HgN/A
12:20 PM66 °FPartly sunny.9 mph88%29.86 "HgN/A
11:50 AM66 °FLight rain. Partly sunny.10 mph88%29.83 "HgN/A
11:20 AM64 °FLight rain. Partly sunny.6 mph94%29.83 "Hg6 mi
10:50 AM64 °FLight rain. Partly sunny.6 mph94%29.83 "Hg4 mi
10:20 AM64 °FPartly sunny.8 mph94%29.83 "Hg5 mi
9:50 AM64 °FPartly sunny.6 mph94%29.83 "HgN/A
9:20 AM64 °FPartly sunny.1 mph94%29.83 "HgN/A
8:50 AM64 °FBroken clouds.2 mph94%29.83 "HgN/A
8:20 AM64 °FBroken clouds.2 mph94%29.80 "HgN/A
7:50 AM63 °FPartly sunny.2 mph94%29.80 "HgN/A
7:20 AM63 °FDrizzle. Fog.6 mph100%29.80 "Hg3 mi
Weather by CustomWeather, © 2014

See weather overviewHow to use our weather pages